EW2077 Weather Reports


Display with metric or nautical units.
time (UTC)temp
F
wind
direction
speed
MPH
gust
MPH
rain 1hr
in
rain 24hr
in
rain mn
in
humidity
%
barometer
mb
20260906033045 66 209 0.0 0.0 0.00 0.00 0.00 45 1032.8
20260906031540 66 209 0.0 0.0 0.00 0.00 0.00 46 1032.5
20260906030046 67 209 0.0 0.0 0.00 0.00 0.00 44 1032.4
20260906024536 67 209 0.0 0.0 0.00 0.00 0.00 43 1032.2
20260906023035 68 209 0.0 0.0 0.00 0.00 0.00 42 1031.9
20260906021535 69 209 0.0 0.0 0.00 0.00 0.00 40 1031.8
20260906020034 70 209 0.0 0.0 0.00 0.00 0.00 38 1031.7
20260906014544 72 209 0.0 0.0 0.00 0.00 0.00 37 1031.5
20260906013033 73 209 0.0 0.0 0.00 0.00 0.00 35 1031.3
20260906011539 74 209 0.0 0.0 0.00 0.00 0.00 34 1031.3
20260906010056 76 209 0.0 0.0 0.00 0.00 0.00 33 1031.3
20260906004532 77 209 0.0 0.0 0.00 0.00 0.00 31 1031.3
20260906003031 78 209 0.0 0.0 0.00 0.00 0.00 30 1031.2
20260906001548 78 209 0.0 1.0 0.00 0.00 0.00 30 1031.2
20260906000030 79 209 0.0 2.0 0.00 0.00 0.00 30 1031.0
20260905234530 79 209 0.0 3.0 0.00 0.00 0.00 29 1030.9
20260905233128 81 204 0.0 4.0 0.00 0.00 0.00 27 1030.8
20260905231538 80 204 0.0 3.0 0.00 0.00 0.00 29 1030.7
20260905230026 80 204 0.0 0.0 0.00 0.00 0.00 29 1030.7
20260905224537 80 204 0.0 3.0 0.00 0.00 0.00 28 1030.7
20260905223034 82 214 0.0 0.0 0.00 0.00 0.00 26 1030.6
20260905221519 82 214 0.0 0.0 0.00 0.00 0.00 27 1031.0
20260905220024 83 213 0.0 0.0 0.00 0.00 0.00 27 1031.3
20260905214515 82 209 0.0 2.0 0.00 0.00 0.00 27 1031.3
20260905213019 82 209 0.0 1.0 0.00 0.00 0.00 28 1031.5
20260905211526 81 208 0.0 3.0 0.00 0.00 0.00 28 1031.7
20260905210007 80 205 0.0 3.0 0.00 0.00 0.00 28 1032.0
20260905204506 81 203 0.0 6.0 0.00 0.00 0.00 29 1032.1
20260905203006 80 196 1.0 6.0 0.00 0.00 0.00 28 1032.1
20260905201504 80 192 2.0 6.0 0.00 0.00 0.00 28 1032.1
20260905200059 82 198 0.0 4.0 0.00 0.00 0.00 28 1032.1
20260905194558 82 192 1.0 5.0 0.00 0.00 0.00 28 1032.2
20260905193056 82 203 1.0 4.0 0.00 0.00 0.00 28 1032.3
20260905191554 82 198 1.0 4.0 0.00 0.00 0.00 27 1032.3
20260905190059 82 222 0.0 7.0 0.00 0.00 0.00 27 1032.3
20260905184551 82 215 1.0 4.0 0.00 0.00 0.00 28 1032.4
20260905183107 81 215 1.0 4.0 0.00 0.00 0.00 28 1032.5
20260905181547 81 209 2.0 6.0 0.00 0.00 0.00 28 1032.5
20260905180050 80 200 0.0 4.0 0.00 0.00 0.00 28 1032.6
20260905174543 80 209 0.0 4.0 0.00 0.00 0.00 28 1032.6
20260905173040 79 202 1.0 5.0 0.00 0.00 0.00 30 1032.7
20260905171542 79 229 0.0 3.0 0.00 0.00 0.00 30 1032.8
20260905170040 78 313 0.0 2.0 0.00 0.00 0.00 31 1032.7
20260905164537 78 320 0.0 0.0 0.00 0.00 0.00 29 1032.6
20260905163035 78 320 0.0 0.0 0.00 0.00 0.00 31 1032.7
20260905161530 78 329 0.0 0.0 0.00 0.00 0.00 31 1032.6
20260905160027 76 355 0.0 3.0 0.00 0.00 0.00 35 1032.7
20260905154522 74 16 0.0 0.0 0.00 0.00 0.00 39 1032.9
20260905153021 71 16 0.0 0.0 0.00 0.00 0.00 42 1033.0
20260905151519 68 16 0.0 0.0 0.00 0.00 0.00 47 1033.0
20260905150017 65 16 0.0 0.0 0.00 0.00 0.00 52 1033.2
20260905144511 61 16 0.0 0.0 0.00 0.00 0.00 60 1033.5
20260905143001 59 16 0.0 0.0 0.00 0.00 0.00 65 1033.6
20260905141603 56 16 0.0 0.0 0.00 0.00 0.00 69 1033.6
20260905140126 54 16 0.0 0.0 0.00 0.00 0.00 69 1033.5
20260905134603 54 16 0.0 0.0 0.00 0.00 0.00 70 1033.5
20260905133058 53 16 0.0 0.0 0.00 0.00 0.00 69 1033.5
20260905131611 52 16 0.0 0.0 0.00 0.00 0.00 69 1033.6
20260905130058 52 16 0.0 0.0 0.00 0.00 0.00 68 1033.6
20260905124557 52 16 0.0 0.0 0.00 0.00 0.00 68 1033.5
20260905123057 52 16 0.0 0.0 0.00 0.00 0.00 69 1033.2
20260905121553 52 16 0.0 0.0 0.00 0.00 0.00 69 1033.2
20260905120051 52 17 0.0 0.0 0.00 0.00 0.00 68 1033.1
20260905114550 52 16 0.0 0.0 0.00 0.00 0.00 69 1033.1
20260905113051 51 16 0.0 0.0 0.00 0.00 0.00 70 1033.1
20260905111552 52 16 0.0 0.0 0.00 0.00 0.00 69 1033.1
20260905110047 52 16 0.0 0.0 0.00 0.00 0.00 69 1033.1
20260905104552 52 17 0.0 0.0 0.00 0.00 0.00 68 1032.9
20260905103042 52 17 0.0 0.0 0.00 0.00 0.00 68 1032.9
20260905101539 53 16 0.0 0.0 0.00 0.00 0.00 68 1032.7
20260905100042 53 16 0.0 0.0 0.00 0.00 0.00 67 1032.8
20260905094536 53 16 0.0 0.0 0.00 0.00 0.00 67 1032.8
20260905093035 53 16 0.0 0.0 0.00 0.00 0.00 66 1032.6
20260905091535 54 16 0.0 0.0 0.00 0.00 0.00 64 1032.6
20260905090030 54 16 0.0 0.0 0.00 0.00 0.00 64 1032.6
20260905084529 54 16 0.0 0.0 0.00 0.00 0.00 63 1032.6
20260905083028 54 16 0.0 0.0 0.00 0.00 0.00 63 1032.7
20260905081525 55 16 0.0 0.0 0.00 0.00 0.00 62 1032.6
20260905080023 55 16 0.0 0.0 0.00 0.00 0.00 62 1032.6
20260905074525 55 17 0.0 0.0 0.00 0.00 0.00 61 1032.5
20260905073020 56 16 0.0 0.0 0.00 0.00 0.00 61 1032.7
20260905071518 56 16 0.0 0.0 0.00 0.00 0.00 61 1032.6
20260905070015 56 16 0.0 0.0 0.00 0.00 0.00 60 1032.6
20260905064512 57 16 0.0 0.0 0.00 0.00 0.00 59 1032.5
20260905063009 58 16 0.0 0.0 0.00 0.00 0.00 58 1032.2
20260905061516 59 16 0.0 0.0 0.00 0.00 0.00 57 1032.4
20260905060004 59 16 0.0 0.0 0.00 0.00 0.00 56 1032.2
20260905054501 60 16 0.0 0.0 0.00 0.00 0.00 55 1032.2
20260905053002 61 16 0.0 0.0 0.00 0.00 0.00 53 1032.1
20260905051600 63 16 0.0 0.0 0.00 0.00 0.00 51 1032.2
20260905051503 63 16 0.0 0.0 0.00 0.00 0.00 51 1032.2
20260905050100 64 16 0.0 0.0 0.00 0.00 0.00 49 1032.0
20260905044600 66 16 0.0 0.0 0.00 0.00 0.00 47 1032.0
20260905043059 66 16 0.0 0.0 0.00 0.00 0.00 46 1032.0
20260905041559 67 17 0.0 0.0 0.00 0.00 0.00 46 1032.0
20260905040058 68 18 0.0 1.0 0.00 0.00 0.00 45 1032.0
20260905034611 69 36 0.0 6.0 0.00 0.00 0.00 43 1032.1